TimeEDT,TemperatureF,Dew PointF,Humidity,Sea Level PressureIn,VisibilityMPH,Wind Direction,Wind SpeedMPH,Gust SpeedMPH,PrecipitationIn,Events,Conditions,WindDirDegrees,DateUTC
12:15 AM,64.4,64.4,100,29.89,0.5,SW,5.8,-,N/A,Fog,Fog,220,2013-09-13 04:15:00
12:35 AM,64.4,64.4,100,29.88,0.5,SW,4.6,-,N/A,Fog,Fog,220,2013-09-13 04:35:00
12:55 AM,64.4,64.4,100,29.87,4.0,Calm,Calm,-,N/A,,Overcast,0,2013-09-13 04:55:00
1:15 AM,64.4,64.4,100,29.87,4.0,Calm,Calm,-,N/A,,Mostly Cloudy,0,2013-09-13 05:15:00
1:35 AM,64.4,64.4,100,29.88,4.0,Calm,Calm,-,N/A,,Mostly Cloudy,0,2013-09-13 05:35:00
1:55 AM,64.4,64.4,100,29.87,4.0,Calm,Calm,-,N/A,,Scattered Clouds,0,2013-09-13 05:55:00
2:15 AM,64.4,64.4,100,29.86,4.0,Calm,Calm,-,N/A,,Scattered Clouds,0,2013-09-13 06:15:00
2:35 AM,64.4,64.4,100,29.85,4.0,Calm,Calm,-,N/A,,Mostly Cloudy,0,2013-09-13 06:35:00
2:55 AM,64.4,64.4,100,29.85,3.0,Calm,Calm,-,N/A,,Overcast,0,2013-09-13 06:55:00
3:15 AM,64.4,64.4,100,29.85,2.5,North,6.9,-,N/A,Rain,Heavy Rain,350,2013-09-13 07:15:00
3:35 AM,60.8,60.8,100,29.86,4.0,North,16.1,23.0,0.10,Rain,Rain,360,2013-09-13 07:35:00
3:55 AM,60.8,60.8,100,29.86,2.5,North,8.1,19.6,0.18,Rain,Rain,10,2013-09-13 07:55:00
4:15 AM,59.0,59.0,100,29.86,5.0,NE,5.8,-,0.01,Rain,Light Rain,40,2013-09-13 08:15:00
4:35 AM,59.0,59.0,100,29.88,5.0,NNW,5.8,-,0.01,Rain,Light Rain,340,2013-09-13 08:35:00
4:55 AM,57.2,57.2,100,29.87,5.0,North,3.5,-,0.03,,Mostly Cloudy,10,2013-09-13 08:55:00
5:15 AM,57.2,57.2,100,29.88,8.0,NNW,5.8,-,N/A,,Scattered Clouds,330,2013-09-13 09:15:00
5:35 AM,57.2,57.2,100,29.88,10.0,Calm,Calm,-,N/A,,Mostly Cloudy,0,2013-09-13 09:35:00
5:55 AM,57.2,57.2,100,29.89,10.0,NW,3.5,-,N/A,,Mostly Cloudy,320,2013-09-13 09:55:00
6:15 AM,57.2,57.2,100,29.89,10.0,Calm,Calm,-,N/A,,Scattered Clouds,0,2013-09-13 10:15:00
6:35 AM,55.4,55.4,100,29.89,10.0,Calm,Calm,-,N/A,,Scattered Clouds,0,2013-09-13 10:35:00
6:55 AM,55.4,55.4,100,29.91,5.0,NW,4.6,-,N/A,,Mostly Cloudy,320,2013-09-13 10:55:00
7:15 AM,55.4,55.4,100,29.92,8.0,NNW,6.9,-,N/A,,Overcast,330,2013-09-13 11:15:00
7:35 AM,55.4,55.4,100,29.93,9.0,North,6.9,-,N/A,,Overcast,350,2013-09-13 11:35:00
7:55 AM,55.4,55.4,100,29.93,10.0,NNW,5.8,-,N/A,,Overcast,340,2013-09-13 11:55:00
8:15 AM,55.4,55.4,100,29.94,10.0,North,8.1,-,N/A,,Overcast,350,2013-09-13 12:15:00
8:35 AM,55.4,55.4,100,29.94,10.0,NNW,8.1,-,N/A,,Mostly Cloudy,330,2013-09-13 12:35:00
8:55 AM,57.2,57.2,100,29.94,10.0,NNW,5.8,-,N/A,,Overcast,330,2013-09-13 12:55:00
9:15 AM,57.2,57.2,100,29.95,10.0,NW,4.6,-,N/A,,Mostly Cloudy,320,2013-09-13 13:15:00
9:35 AM,57.2,57.2,100,29.95,10.0,NW,3.5,-,N/A,,Mostly Cloudy,320,2013-09-13 13:35:00
9:55 AM,59.0,57.2,94,29.95,10.0,NW,3.5,-,N/A,,Mostly Cloudy,310,2013-09-13 13:55:00
10:15 AM,57.2,55.4,94,29.96,10.0,NW,5.8,-,N/A,,Mostly Cloudy,320,2013-09-13 14:15:00
10:35 AM,59.0,55.4,88,29.96,10.0,Calm,Calm,-,N/A,,Mostly Cloudy,0,2013-09-13 14:35:00
10:55 AM,62.6,55.4,77,29.95,10.0,Calm,Calm,-,N/A,,Mostly Cloudy,0,2013-09-13 14:55:00
11:15 AM,62.6,55.4,77,29.95,10.0,WNW,4.6,-,N/A,,Partly Cloudy,300,2013-09-13 15:15:00
11:35 AM,60.8,53.6,77,29.95,10.0,WNW,4.6,-,N/A,,Mostly Cloudy,290,2013-09-13 15:35:00
11:55 AM,64.4,55.4,73,29.94,10.0,West,8.1,-,N/A,,Scattered Clouds,270,2013-09-13 15:55:00
12:15 PM,64.4,53.6,68,29.94,10.0,West,10.4,-,N/A,,Scattered Clouds,270,2013-09-13 16:15:00
12:35 PM,64.4,55.4,73,29.94,10.0,NW,8.1,-,N/A,,Mostly Cloudy,310,2013-09-13 16:35:00
12:55 PM,64.4,51.8,64,29.94,10.0,WNW,11.5,16.1,N/A,,Mostly Cloudy,300,2013-09-13 16:55:00
1:15 PM,62.6,53.6,72,29.94,10.0,NW,8.1,-,N/A,,Scattered Clouds,320,2013-09-13 17:15:00
1:35 PM,66.2,51.8,60,29.94,10.0,West,8.1,-,N/A,,Partly Cloudy,280,2013-09-13 17:35:00
1:55 PM,64.4,51.8,64,29.94,10.0,NNW,8.1,18.4,N/A,,Partly Cloudy,330,2013-09-13 17:55:00
2:15 PM,64.4,51.8,64,29.94,10.0,WNW,8.1,-,N/A,,Partly Cloudy,290,2013-09-13 18:15:00
2:35 PM,62.6,51.8,68,29.94,10.0,WNW,8.1,18.4,N/A,,Mostly Cloudy,300,2013-09-13 18:35:00
2:55 PM,64.4,50.0,59,29.94,10.0,NNW,8.1,-,N/A,,Partly Cloudy,330,2013-09-13 18:55:00
3:15 PM,60.8,50.0,68,29.94,10.0,NW,5.8,-,N/A,,Partly Cloudy,310,2013-09-13 19:15:00
3:35 PM,64.4,50.0,59,29.94,10.0,West,11.5,-,N/A,,Partly Cloudy,280,2013-09-13 19:35:00
3:55 PM,64.4,48.2,56,29.94,10.0,NW,11.5,21.9,N/A,,Partly Cloudy,320,2013-09-13 19:55:00
4:15 PM,64.4,48.2,56,29.94,10.0,WNW,8.1,-,N/A,,Clear,290,2013-09-13 20:15:00
4:35 PM,64.4,46.4,52,29.94,10.0,WNW,5.8,16.1,N/A,,Clear,290,2013-09-13 20:35:00
4:55 PM,64.4,46.4,52,29.95,10.0,WNW,11.5,-,N/A,,Clear,290,2013-09-13 20:55:00
5:15 PM,64.4,48.2,56,29.95,10.0,West,5.8,-,N/A,,Partly Cloudy,280,2013-09-13 21:15:00
5:35 PM,62.6,46.4,55,29.96,10.0,NW,5.8,17.3,N/A,,Scattered Clouds,310,2013-09-13 21:35:00
5:55 PM,62.6,48.2,59,29.96,10.0,NW,5.8,-,N/A,,Partly Cloudy,310,2013-09-13 21:55:00
6:15 PM,60.8,50.0,68,29.97,10.0,NNW,10.4,19.6,N/A,,Mostly Cloudy,340,2013-09-13 22:15:00
6:35 PM,59.0,50.0,72,29.98,10.0,NNW,4.6,-,N/A,,Mostly Cloudy,340,2013-09-13 22:35:00
6:55 PM,57.2,50.0,77,29.99,10.0,North,6.9,-,N/A,,Overcast,350,2013-09-13 22:55:00
7:15 PM,57.2,51.8,82,29.99,10.0,NNW,10.4,-,N/A,,Overcast,340,2013-09-13 23:15:00
7:35 PM,57.2,51.8,82,30.00,10.0,North,6.9,-,N/A,,Mostly Cloudy,360,2013-09-13 23:35:00
7:55 PM,55.4,50.0,82,30.00,10.0,North,6.9,-,N/A,,Scattered Clouds,350,2013-09-13 23:55:00
8:15 PM,55.4,50.0,82,30.01,10.0,Calm,Calm,-,N/A,,Scattered Clouds,0,2013-09-14 00:15:00
8:35 PM,55.4,50.0,82,30.02,10.0,North,5.8,-,N/A,,Scattered Clouds,360,2013-09-14 00:35:00
8:55 PM,55.4,50.0,82,30.03,10.0,NNW,10.4,-,N/A,,Partly Cloudy,340,2013-09-14 00:55:00
9:15 PM,53.6,50.0,88,30.03,10.0,North,8.1,-,N/A,,Mostly Cloudy,360,2013-09-14 01:15:00
9:35 PM,53.6,48.2,82,30.04,10.0,North,6.9,-,N/A,,Mostly Cloudy,350,2013-09-14 01:35:00
9:55 PM,53.6,48.2,82,30.04,10.0,Calm,Calm,-,N/A,,Partly Cloudy,0,2013-09-14 01:55:00
10:15 PM,51.8,48.2,88,30.05,10.0,Calm,Calm,-,N/A,,Scattered Clouds,0,2013-09-14 02:15:00
10:35 PM,51.8,48.2,88,30.05,10.0,Calm,Calm,-,N/A,,Partly Cloudy,0,2013-09-14 02:35:00
10:55 PM,51.8,48.2,88,30.05,10.0,Calm,Calm,-,N/A,,Partly Cloudy,0,2013-09-14 02:55:00
11:15 PM,51.8,48.2,88,30.06,10.0,Calm,Calm,-,N/A,,Partly Cloudy,0,2013-09-14 03:15:00
11:35 PM,51.8,50.0,94,30.06,10.0,North,5.8,-,N/A,,Mostly Cloudy,350,2013-09-14 03:35:00
11:55 PM,51.8,48.2,88,30.06,10.0,North,6.9,-,N/A,,Mostly Cloudy,10,2013-09-14 03:55:00